Time,TemperatureF,DewpointF,PressureIn,WindDirection,WindDirectionDegrees,WindSpeedMPH,WindSpeedGustMPH,Humidity,HourlyPrecipIn,Conditions,Clouds,dailyrainin,SolarRadiationWatts/m^2,SoftwareType,DateUTC
2013-03-20 00:00:00,26.4,24.1,29.80,West,271,0.0,1.0,91,0.00,,,0.20,0.0,meteohub,2013-03-20 04:00:00,
2013-03-20 00:01:00,26.4,24.1,29.80,West,271,0.0,1.0,91,0.00,,,0.00,0.0,meteohub,2013-03-20 04:01:00,
2013-03-20 00:06:00,26.2,23.7,29.80,West,271,0.0,1.0,90,0.00,,,0.00,0.0,meteohub,2013-03-20 04:06:00,
2013-03-20 00:09:00,26.1,23.5,29.79,West,271,0.0,1.0,90,0.00,,,0.00,0.0,meteohub,2013-03-20 04:09:00,
2013-03-20 00:14:00,25.7,23.2,29.80,West,271,0.0,1.0,90,0.00,,,0.00,0.0,meteohub,2013-03-20 04:14:00,
2013-03-20 00:20:00,25.3,22.8,29.79,West,271,0.0,1.0,90,0.00,,,0.00,0.0,meteohub,2013-03-20 04:20:00,
2013-03-20 00:25:00,25.0,22.5,29.79,West,271,0.0,0.0,90,0.00,,,0.00,0.0,meteohub,2013-03-20 04:25:00,
2013-03-20 00:30:00,24.8,22.3,29.79,West,271,0.0,0.0,90,0.00,,,0.00,0.0,meteohub,2013-03-20 04:30:00,
2013-03-20 00:35:00,24.6,22.1,29.78,West,271,0.0,1.0,90,0.00,,,0.00,0.0,meteohub,2013-03-20 04:35:00,
2013-03-20 00:40:00,24.4,21.9,29.78,WSW,252,0.0,1.0,90,0.00,,,0.00,0.0,meteohub,2013-03-20 04:40:00,
2013-03-20 00:45:00,24.3,21.7,29.79,WSW,252,0.0,1.0,90,0.00,,,0.00,0.0,meteohub,2013-03-20 04:45:00,
2013-03-20 00:51:00,24.3,21.7,29.78,WSW,252,0.0,5.0,90,0.00,,,0.00,0.0,meteohub,2013-03-20 04:51:00,
2013-03-20 00:56:00,24.1,21.6,29.78,WSW,252,0.0,5.0,90,0.00,,,0.00,0.0,meteohub,2013-03-20 04:56:00,
2013-03-20 01:01:00,23.9,21.7,29.78,WNW,288,0.0,5.0,91,0.00,,,0.00,0.0,meteohub,2013-03-20 05:01:00,
2013-03-20 01:06:00,23.9,21.4,29.78,WNW,288,0.0,5.0,90,0.00,,,0.00,0.0,meteohub,2013-03-20 05:06:00,
2013-03-20 01:12:00,23.7,21.2,29.78,WNW,288,0.0,5.0,90,0.00,,,0.00,0.0,meteohub,2013-03-20 05:12:00,
2013-03-20 01:17:00,23.5,21.0,29.78,West,270,0.0,5.0,90,0.00,,,0.00,0.0,meteohub,2013-03-20 05:17:00,
2013-03-20 01:22:00,23.5,21.0,29.79,NNW,330,0.0,3.0,90,0.00,,,0.00,0.0,meteohub,2013-03-20 05:22:00,
2013-03-20 01:27:00,23.5,21.4,29.79,NW,313,0.0,3.0,91,0.00,,,0.00,0.0,meteohub,2013-03-20 05:27:00,
2013-03-20 01:32:00,23.4,21.2,29.78,NW,313,0.0,3.0,91,0.00,,,0.00,0.0,meteohub,2013-03-20 05:32:00,
2013-03-20 01:37:00,23.2,20.7,29.79,NW,304,0.0,2.0,90,0.00,,,0.00,0.0,meteohub,2013-03-20 05:37:00,
2013-03-20 01:42:00,23.2,20.7,29.78,WSW,254,1.0,2.0,90,0.00,,,0.00,0.0,meteohub,2013-03-20 05:42:00,
2013-03-20 01:47:00,23.0,20.8,29.78,SW,221,0.0,2.0,91,0.00,,,0.00,0.0,meteohub,2013-03-20 05:47:00,
2013-03-20 01:52:00,22.8,20.7,29.79,West,277,0.0,2.0,91,0.00,,,0.00,0.0,meteohub,2013-03-20 05:52:00,
2013-03-20 01:58:00,23.0,20.8,29.79,West,277,0.0,4.0,91,0.00,,,0.00,0.0,meteohub,2013-03-20 05:58:00,
2013-03-20 02:03:00,23.0,20.8,29.79,West,277,0.0,4.0,91,0.00,,,0.00,0.0,meteohub,2013-03-20 06:03:00,
2013-03-20 02:08:00,23.0,20.8,29.79,West,277,0.0,4.0,91,0.00,,,0.00,0.0,meteohub,2013-03-20 06:08:00,
2013-03-20 02:13:00,23.0,20.8,29.79,West,277,0.0,4.0,91,0.00,,,0.00,0.0,meteohub,2013-03-20 06:13:00,
2013-03-20 02:19:00,22.8,20.7,29.79,West,277,0.0,4.0,91,0.00,,,0.00,0.0,meteohub,2013-03-20 06:19:00,
2013-03-20 02:24:00,22.8,20.7,29.79,SW,232,0.0,1.0,91,0.00,,,0.00,0.0,meteohub,2013-03-20 06:24:00,
2013-03-20 02:30:00,22.6,20.5,29.79,WSW,253,0.0,4.0,91,0.00,,,0.00,0.0,meteohub,2013-03-20 06:30:00,
2013-03-20 02:35:00,22.6,20.5,29.79,WSW,253,0.0,4.0,91,0.00,,,0.00,0.0,meteohub,2013-03-20 06:35:00,
2013-03-20 02:40:00,22.8,20.7,29.79,WNW,302,0.0,4.0,91,0.00,,,0.00,0.0,meteohub,2013-03-20 06:40:00,
2013-03-20 02:45:00,23.2,21.0,29.79,WNW,301,1.0,4.0,91,0.00,,,0.00,0.0,meteohub,2013-03-20 06:45:00,
2013-03-20 02:51:00,23.4,21.2,29.79,NW,319,0.0,5.0,91,0.00,,,0.00,0.0,meteohub,2013-03-20 06:51:00,
2013-03-20 02:56:00,23.4,21.2,29.79,NW,319,0.0,2.0,91,0.00,,,0.00,0.0,meteohub,2013-03-20 06:56:00,
2013-03-20 03:01:00,23.4,21.2,29.79,West,263,1.0,2.0,91,0.00,,,0.00,0.0,meteohub,2013-03-20 07:01:00,
2013-03-20 03:06:00,23.5,21.4,29.78,West,263,0.0,2.0,91,0.00,,,0.00,0.0,meteohub,2013-03-20 07:06:00,
2013-03-20 03:12:00,23.5,21.4,29.78,West,263,0.0,4.0,91,0.00,,,0.00,0.0,meteohub,2013-03-20 07:12:00,
2013-03-20 03:18:00,23.5,21.4,29.78,NW,323,1.0,2.0,91,0.00,,,0.00,0.0,meteohub,2013-03-20 07:18:00,
2013-03-20 03:23:00,23.4,21.2,29.78,WSW,240,0.0,2.0,91,0.00,,,0.00,0.0,meteohub,2013-03-20 07:23:00,
2013-03-20 03:28:00,23.4,21.2,29.78,WSW,241,0.0,2.0,91,0.00,,,0.00,0.0,meteohub,2013-03-20 07:28:00,
2013-03-20 03:33:00,23.2,21.0,29.77,WSW,241,0.0,2.0,91,0.00,,,0.00,0.0,meteohub,2013-03-20 07:33:00,
2013-03-20 03:38:00,22.6,20.1,29.77,WSW,241,0.0,2.0,90,0.00,,,0.00,0.0,meteohub,2013-03-20 07:38:00,
2013-03-20 03:44:00,22.3,19.8,29.77,WSW,241,0.0,2.0,90,0.00,,,0.00,0.0,meteohub,2013-03-20 07:44:00,
2013-03-20 03:49:00,21.7,19.2,29.77,WSW,241,0.0,2.0,90,0.00,,,0.00,0.0,meteohub,2013-03-20 07:49:00,
2013-03-20 03:54:00,21.6,19.0,29.77,WSW,241,0.0,2.0,90,0.00,,,0.00,0.0,meteohub,2013-03-20 07:54:00,
2013-03-20 03:59:00,21.4,18.9,29.77,WNW,294,1.0,2.0,90,0.00,,,0.00,0.0,meteohub,2013-03-20 07:59:00,
2013-03-20 04:05:00,21.0,18.5,29.77,WNW,294,0.0,2.0,90,0.00,,,0.00,0.0,meteohub,2013-03-20 08:05:00,
2013-03-20 04:10:00,20.8,18.3,29.78,NE,40,0.0,2.0,90,0.00,,,0.00,0.0,meteohub,2013-03-20 08:10:00,
2013-03-20 04:15:00,20.3,17.8,29.78,East,81,0.0,2.0,90,0.00,,,0.00,0.0,meteohub,2013-03-20 08:15:00,
2013-03-20 04:21:00,20.1,17.6,29.78,East,81,0.0,2.0,90,0.00,,,0.00,0.0,meteohub,2013-03-20 08:21:00,
2013-03-20 04:26:00,19.9,17.4,29.78,East,81,0.0,2.0,90,0.00,,,0.00,0.0,meteohub,2013-03-20 08:26:00,
2013-03-20 04:31:00,19.8,17.2,29.78,East,81,0.0,2.0,90,0.00,,,0.00,0.0,meteohub,2013-03-20 08:31:00,
2013-03-20 04:36:00,19.6,17.1,29.78,NNE,12,0.0,0.0,90,0.00,,,0.00,0.0,meteohub,2013-03-20 08:36:00,
2013-03-20 04:41:00,19.4,16.9,29.78,NNE,12,0.0,0.0,90,0.00,,,0.00,0.0,meteohub,2013-03-20 08:41:00,
2013-03-20 04:47:00,19.2,16.7,29.78,NNE,12,0.0,1.0,90,0.00,,,0.00,0.0,meteohub,2013-03-20 08:47:00,
2013-03-20 04:52:00,19.0,16.5,29.78,NNE,12,0.0,1.0,90,0.00,,,0.00,0.0,meteohub,2013-03-20 08:52:00,
2013-03-20 04:57:00,19.0,16.5,29.78,NNE,12,0.0,1.0,90,0.00,,,0.00,0.0,meteohub,2013-03-20 08:57:00,
2013-03-20 05:02:00,18.9,16.3,29.78,WSW,243,0.0,1.0,90,0.00,,,0.00,0.0,meteohub,2013-03-20 09:02:00,
2013-03-20 05:07:00,18.9,16.3,29.78,WSW,243,0.0,1.0,90,0.00,,,0.00,0.0,meteohub,2013-03-20 09:07:00,
2013-03-20 05:12:00,18.7,16.2,29.78,WSW,243,0.0,1.0,90,0.00,,,0.00,0.0,meteohub,2013-03-20 09:12:00,
2013-03-20 05:17:00,18.5,16.0,29.79,WSW,243,0.0,1.0,90,0.00,,,0.00,0.0,meteohub,2013-03-20 09:17:00,
2013-03-20 05:22:00,18.3,15.8,29.79,WSW,243,0.0,1.0,90,0.00,,,0.00,0.0,meteohub,2013-03-20 09:22:00,
2013-03-20 05:28:00,18.3,15.8,29.79,WSW,243,0.0,1.0,90,0.00,,,0.00,0.0,meteohub,2013-03-20 09:28:00,
2013-03-20 05:33:00,18.3,15.8,29.79,WSW,243,0.0,0.0,90,0.00,,,0.00,0.0,meteohub,2013-03-20 09:33:00,
2013-03-20 05:38:00,18.1,15.6,29.79,WSW,243,0.0,0.0,90,0.00,,,0.00,0.0,meteohub,2013-03-20 09:38:00,
2013-03-20 05:43:00,18.0,15.4,29.79,WSW,243,0.0,0.0,90,0.00,,,0.00,0.0,meteohub,2013-03-20 09:43:00,
2013-03-20 05:49:00,18.0,15.4,29.79,WSW,243,0.0,0.0,90,0.00,,,0.00,0.0,meteohub,2013-03-20 09:49:00,
2013-03-20 05:54:00,17.8,15.3,29.79,WSW,243,0.0,0.0,90,0.00,,,0.00,0.0,meteohub,2013-03-20 09:54:00,
2013-03-20 05:59:00,17.8,15.3,29.80,WSW,243,0.0,0.0,90,0.00,,,0.00,0.0,meteohub,2013-03-20 09:59:00,
2013-03-20 06:05:00,17.6,15.3,29.79,WSW,243,0.0,0.0,90,0.00,,,0.00,0.0,meteohub,2013-03-20 10:05:00,
2013-03-20 06:10:00,17.4,15.1,29.79,WSW,243,0.0,0.0,90,0.00,,,0.00,0.0,meteohub,2013-03-20 10:10:00,
2013-03-20 06:15:00,17.2,14.9,29.79,WSW,243,0.0,0.0,90,0.00,,,0.00,0.0,meteohub,2013-03-20 10:15:00,
2013-03-20 06:21:00,17.1,14.7,29.80,WSW,243,0.0,0.0,90,0.00,,,0.00,0.0,meteohub,2013-03-20 10:21:00,
2013-03-20 06:26:00,17.1,14.7,29.80,WSW,243,0.0,0.0,90,0.00,,,0.00,0.0,meteohub,2013-03-20 10:26:00,
2013-03-20 06:31:00,16.9,14.5,29.80,WSW,243,0.0,0.0,90,0.00,,,0.00,0.0,meteohub,2013-03-20 10:31:00,
2013-03-20 06:36:00,16.9,14.5,29.80,WSW,243,0.0,0.0,90,0.00,,,0.00,0.0,meteohub,2013-03-20 10:36:00,
2013-03-20 06:42:00,16.9,14.5,29.80,WSW,243,0.0,0.0,90,0.00,,,0.00,0.0,meteohub,2013-03-20 10:42:00,
2013-03-20 06:47:00,17.1,14.9,29.80,WSW,243,0.0,0.0,91,0.00,,,0.00,0.0,meteohub,2013-03-20 10:47:00,
2013-03-20 06:52:00,17.1,14.9,29.80,WSW,243,0.0,0.0,91,0.00,,,0.00,0.0,meteohub,2013-03-20 10:52:00,
2013-03-20 06:57:00,17.2,15.1,29.80,WSW,243,0.0,1.0,91,0.00,,,0.00,0.0,meteohub,2013-03-20 10:57:00,
2013-03-20 07:02:00,17.2,15.1,29.80,WSW,243,0.0,1.0,91,0.00,,,0.00,0.0,meteohub,2013-03-20 11:02:00,
2013-03-20 07:08:00,17.4,15.3,29.80,WSW,248,0.0,1.0,91,0.00,,,0.00,0.0,meteohub,2013-03-20 11:08:00,
2013-03-20 07:13:00,17.8,15.6,29.80,WSW,254,0.0,3.0,91,0.00,,,0.00,5.0,meteohub,2013-03-20 11:13:00,
2013-03-20 07:19:00,18.3,16.3,29.80,West,263,2.0,3.0,92,0.00,,,0.00,5.0,meteohub,2013-03-20 11:19:00,
2013-03-20 07:24:00,19.0,17.1,29.80,West,263,1.0,3.0,92,0.00,,,0.00,7.0,meteohub,2013-03-20 11:24:00,
2013-03-20 07:29:00,19.9,18.0,29.80,West,268,0.0,3.0,92,0.00,,,0.00,9.0,meteohub,2013-03-20 11:29:00,
2013-03-20 07:34:00,20.5,18.5,29.80,West,268,0.0,4.0,92,0.00,,,0.00,11.0,meteohub,2013-03-20 11:34:00,
2013-03-20 07:39:00,21.0,19.0,29.81,SW,219,1.0,4.0,92,0.00,,,0.00,12.0,meteohub,2013-03-20 11:39:00,
2013-03-20 07:45:00,21.4,19.4,29.81,SW,219,0.0,3.0,92,0.00,,,0.00,12.0,meteohub,2013-03-20 11:45:00,
2013-03-20 07:50:00,21.7,19.8,29.81,SW,219,0.0,3.0,92,0.00,,,0.00,14.0,meteohub,2013-03-20 11:50:00,
2013-03-20 07:55:00,22.3,20.3,29.81,SW,219,0.0,3.0,92,0.00,,,0.00,16.0,meteohub,2013-03-20 11:55:00,
2013-03-20 08:00:00,22.5,20.5,29.81,West,281,1.0,2.0,92,0.00,,,0.00,18.0,meteohub,2013-03-20 12:00:00,
2013-03-20 08:06:00,22.8,20.8,29.81,ENE,76,1.0,2.0,92,0.00,,,0.00,19.0,meteohub,2013-03-20 12:06:00,
2013-03-20 08:11:00,23.2,21.2,29.81,WSW,248,0.0,2.0,92,0.00,,,0.00,21.0,meteohub,2013-03-20 12:11:00,
2013-03-20 08:16:00,23.5,21.6,29.80,WSW,249,1.0,4.0,92,0.00,,,0.00,21.0,meteohub,2013-03-20 12:16:00,
2013-03-20 08:22:00,23.9,21.9,29.81,West,264,4.0,4.0,92,0.00,,,0.00,21.0,meteohub,2013-03-20 12:22:00,
2013-03-20 08:27:00,24.3,22.1,29.81,NNW,331,0.0,4.0,91,0.00,,,0.00,23.0,meteohub,2013-03-20 12:27:00,
2013-03-20 08:32:00,24.4,22.3,29.80,NE,55,0.0,6.0,91,0.00,,,0.00,25.0,meteohub,2013-03-20 12:32:00,
2013-03-20 08:37:00,24.6,22.1,29.80,WSW,248,2.0,6.0,90,0.00,,,0.00,26.0,meteohub,2013-03-20 12:37:00,
2013-03-20 08:42:00,25.0,22.5,29.80,NW,317,2.0,9.0,90,0.00,,,0.00,26.0,meteohub,2013-03-20 12:42:00,
2013-03-20 08:47:00,25.0,22.3,29.80,WSW,252,0.0,9.0,89,0.00,,,0.00,26.0,meteohub,2013-03-20 12:47:00,
2013-03-20 08:52:00,25.2,22.1,29.80,NW,309,3.0,9.0,88,0.00,,,0.00,28.0,meteohub,2013-03-20 12:52:00,
2013-03-20 08:58:00,25.3,22.3,29.80,West,276,6.0,11.0,88,0.00,,,0.00,28.0,meteohub,2013-03-20 12:58:00,
2013-03-20 09:03:00,25.5,22.3,29.79,WSW,250,7.0,11.0,87,0.00,,,0.00,26.0,meteohub,2013-03-20 13:03:00,
2013-03-20 09:08:00,25.5,22.3,29.79,North,355,0.0,11.0,87,0.00,,,0.00,26.0,meteohub,2013-03-20 13:08:00,
2013-03-20 09:13:00,25.7,22.1,29.80,WSW,251,4.0,10.0,86,0.00,,,0.00,25.0,meteohub,2013-03-20 13:13:00,
2013-03-20 09:19:00,25.9,21.9,29.80,SSW,209,1.0,10.0,85,0.00,,,0.00,26.0,meteohub,2013-03-20 13:19:00,
2013-03-20 09:24:00,26.1,22.1,29.80,WNW,289,2.0,10.0,85,0.00,,,0.00,28.0,meteohub,2013-03-20 13:24:00,
2013-03-20 09:29:00,26.1,21.9,29.80,NNW,336,4.0,10.0,84,0.00,,,0.00,39.0,meteohub,2013-03-20 13:29:00,
2013-03-20 09:34:00,26.4,22.3,29.80,WSW,244,0.0,12.0,84,0.00,,,0.00,40.0,meteohub,2013-03-20 13:34:00,
2013-03-20 09:39:00,27.0,22.5,29.79,North,350,2.0,12.0,83,0.00,,,0.00,39.0,meteohub,2013-03-20 13:39:00,
2013-03-20 09:44:00,27.3,22.6,29.79,WNW,284,4.0,10.0,82,0.00,,,0.00,51.0,meteohub,2013-03-20 13:44:00,
2013-03-20 09:50:00,27.9,22.8,29.79,WNW,286,0.0,10.0,81,0.00,,,0.00,49.0,meteohub,2013-03-20 13:50:00,
2013-03-20 09:55:00,28.2,23.2,29.79,WNW,297,2.0,10.0,81,0.00,,,0.00,49.0,meteohub,2013-03-20 13:55:00,
2013-03-20 10:01:00,28.8,23.4,29.79,WNW,282,3.0,11.0,80,0.00,,,0.00,51.0,meteohub,2013-03-20 14:01:00,
2013-03-20 10:06:00,29.3,23.9,29.79,WSW,252,5.0,11.0,80,0.00,,,0.00,70.0,meteohub,2013-03-20 14:06:00,
2013-03-20 10:11:00,29.7,23.7,29.79,West,276,5.0,11.0,78,0.00,,,0.00,69.0,meteohub,2013-03-20 14:11:00,
2013-03-20 10:17:00,29.8,23.5,29.79,NW,309,2.0,14.0,77,0.00,,,0.00,63.0,meteohub,2013-03-20 14:17:00,
2013-03-20 10:22:00,30.4,24.1,29.79,NW,306,1.0,14.0,77,0.00,,,0.00,63.0,meteohub,2013-03-20 14:22:00,
2013-03-20 10:27:00,30.6,23.9,29.79,WNW,294,5.0,14.0,76,0.00,,,0.00,63.0,meteohub,2013-03-20 14:27:00,
2013-03-20 10:32:00,30.6,23.9,29.79,West,273,2.0,12.0,76,0.00,,,0.00,62.0,meteohub,2013-03-20 14:32:00,
2013-03-20 10:37:00,30.7,23.4,29.79,West,272,3.0,12.0,74,0.00,,,0.00,54.0,meteohub,2013-03-20 14:37:00,
2013-03-20 10:42:00,30.7,23.7,29.79,WNW,283,3.0,12.0,75,0.00,,,0.00,60.0,meteohub,2013-03-20 14:42:00,
2013-03-20 10:47:00,30.9,23.4,29.79,SW,216,4.0,12.0,73,0.00,,,0.00,56.0,meteohub,2013-03-20 14:47:00,
2013-03-20 10:52:00,31.1,23.2,29.79,West,275,4.0,12.0,72,0.00,,,0.00,53.0,meteohub,2013-03-20 14:52:00,
2013-03-20 10:57:00,30.9,23.0,29.79,NW,310,3.0,11.0,72,0.00,,,0.00,67.0,meteohub,2013-03-20 14:57:00,
2013-03-20 11:02:00,31.3,23.4,29.79,NNW,331,5.0,11.0,72,0.00,,,0.00,56.0,meteohub,2013-03-20 15:02:00,
2013-03-20 11:07:00,31.5,23.5,29.79,WNW,297,3.0,11.0,72,0.00,,,0.00,91.0,meteohub,2013-03-20 15:07:00,
2013-03-20 11:12:00,32.0,23.7,29.79,WNW,287,3.0,11.0,71,0.00,,,0.00,102.0,meteohub,2013-03-20 15:12:00,
2013-03-20 11:17:00,32.7,23.4,29.79,WNW,301,4.0,14.0,68,0.00,,,0.00,148.0,meteohub,2013-03-20 15:17:00,
2013-03-20 11:22:00,33.6,24.3,29.79,NW,307,9.0,14.0,68,0.00,,,0.00,169.0,meteohub,2013-03-20 15:22:00,
2013-03-20 11:27:00,34.0,23.5,29.79,West,276,11.0,14.0,65,0.00,,,0.00,185.0,meteohub,2013-03-20 15:27:00,
2013-03-20 11:33:00,34.3,23.7,29.79,WNW,282,10.0,21.0,65,0.00,,,0.00,193.0,meteohub,2013-03-20 15:33:00,
2013-03-20 11:38:00,34.9,24.3,29.79,WNW,294,3.0,21.0,65,0.00,,,0.00,207.0,meteohub,2013-03-20 15:38:00,
2013-03-20 11:43:00,35.4,24.8,29.79,WSW,246,3.0,18.0,65,0.00,,,0.00,221.0,meteohub,2013-03-20 15:43:00,
2013-03-20 11:49:00,36.1,25.2,29.79,WNW,284,8.0,18.0,64,0.00,,,0.00,237.0,meteohub,2013-03-20 15:49:00,
2013-03-20 11:54:00,36.0,24.6,29.79,NW,310,5.0,18.0,63,0.00,,,0.00,111.0,meteohub,2013-03-20 15:54:00,
2013-03-20 11:59:00,35.8,24.1,29.79,WNW,284,4.0,16.0,62,0.00,,,0.00,250.0,meteohub,2013-03-20 15:59:00,
2013-03-20 12:05:00,36.1,24.4,29.79,WSW,256,6.0,16.0,62,0.00,,,0.00,338.0,meteohub,2013-03-20 16:05:00,
2013-03-20 12:10:00,36.1,24.1,29.79,NW,315,4.0,15.0,61,0.00,,,0.00,471.0,meteohub,2013-03-20 16:10:00,
2013-03-20 12:15:00,36.3,23.4,29.78,NW,306,12.0,15.0,59,0.00,,,0.00,563.0,meteohub,2013-03-20 16:15:00,
2013-03-20 12:20:00,36.0,23.4,29.79,WNW,288,7.0,22.0,60,0.00,,,0.00,759.0,meteohub,2013-03-20 16:20:00,
2013-03-20 12:26:00,35.4,22.5,29.79,WNW,303,10.0,22.0,59,0.00,,,0.00,178.0,meteohub,2013-03-20 16:26:00,
2013-03-20 12:32:00,35.4,23.0,29.79,WSW,252,4.0,22.0,60,0.00,,,0.00,896.0,meteohub,2013-03-20 16:32:00,
2013-03-20 12:37:00,35.4,23.0,29.78,WNW,283,11.0,22.0,60,0.00,,,0.00,236.0,meteohub,2013-03-20 16:37:00,
2013-03-20 12:42:00,35.2,23.2,29.78,West,267,2.0,22.0,61,0.00,,,0.00,265.0,meteohub,2013-03-20 16:42:00,
2013-03-20 12:47:00,35.1,23.4,29.78,SW,231,3.0,13.0,62,0.01,,,0.00,244.0,meteohub,2013-03-20 16:47:00,
2013-03-20 12:52:00,35.1,23.0,29.78,NNW,329,1.0,13.0,61,0.01,,,0.01,288.0,meteohub,2013-03-20 16:52:00,
2013-03-20 12:57:00,35.2,23.2,29.78,NNW,346,7.0,16.0,61,0.01,,,0.01,425.0,meteohub,2013-03-20 16:57:00,
2013-03-20 13:03:00,35.6,23.0,29.78,WSW,251,11.0,16.0,60,0.01,,,0.01,425.0,meteohub,2013-03-20 17:03:00,
2013-03-20 13:08:00,36.5,23.9,29.78,West,259,5.0,20.0,60,0.01,,,0.01,480.0,meteohub,2013-03-20 17:08:00,
2013-03-20 13:13:00,36.9,23.9,29.78,NNW,333,7.0,20.0,59,0.01,,,0.01,288.0,meteohub,2013-03-20 17:13:00,
2013-03-20 13:19:00,36.5,23.2,29.78,NW,316,7.0,13.0,58,0.01,,,0.01,320.0,meteohub,2013-03-20 17:19:00,
2013-03-20 13:24:00,36.1,22.8,29.78,SW,229,4.0,13.0,58,0.01,,,0.01,278.0,meteohub,2013-03-20 17:24:00,
2013-03-20 13:29:00,36.1,23.2,29.78,West,269,5.0,17.0,59,0.01,,,0.01,380.0,meteohub,2013-03-20 17:29:00,
2013-03-20 13:35:00,36.0,23.0,29.78,WNW,303,1.0,17.0,59,0.01,,,0.01,304.0,meteohub,2013-03-20 17:35:00,
2013-03-20 13:40:00,36.1,23.2,29.78,WNW,302,3.0,19.0,59,0.01,,,0.01,325.0,meteohub,2013-03-20 17:40:00,
2013-03-20 13:45:00,36.1,22.8,29.77,WNW,288,4.0,19.0,58,0.00,,,0.01,320.0,meteohub,2013-03-20 17:45:00,
2013-03-20 13:50:00,36.0,23.0,29.77,WNW,289,5.0,19.0,59,0.00,,,0.01,214.0,meteohub,2013-03-20 17:50:00,
2013-03-20 13:55:00,35.8,22.8,29.77,WNW,300,4.0,18.0,59,0.00,,,0.01,209.0,meteohub,2013-03-20 17:55:00,
2013-03-20 14:00:00,35.4,23.0,29.77,WSW,242,9.0,18.0,60,0.00,,,0.01,229.0,meteohub,2013-03-20 18:00:00,
2013-03-20 14:06:00,35.2,23.2,29.78,West,268,10.0,18.0,61,0.00,,,0.01,246.0,meteohub,2013-03-20 18:06:00,
2013-03-20 14:11:00,35.2,23.5,29.78,West,277,5.0,17.0,62,0.00,,,0.01,362.0,meteohub,2013-03-20 18:11:00,
2013-03-20 14:16:00,35.4,23.7,29.77,West,269,8.0,17.0,62,0.00,,,0.03,309.0,meteohub,2013-03-20 18:16:00,
2013-03-20 14:22:00,35.4,23.7,29.77,West,278,4.0,16.0,62,0.02,,,0.05,332.0,meteohub,2013-03-20 18:22:00,
2013-03-20 14:27:00,35.6,23.9,29.77,WNW,293,5.0,17.0,62,0.06,,,0.05,439.0,meteohub,2013-03-20 18:27:00,
2013-03-20 14:32:00,36.3,24.1,29.77,WNW,303,10.0,17.0,61,0.06,,,0.10,522.0,meteohub,2013-03-20 18:32:00,
2013-03-20 14:37:00,37.2,24.6,29.76,NW,317,11.0,17.0,60,0.10,,,0.10,673.0,meteohub,2013-03-20 18:37:00,
2013-03-20 14:42:00,37.2,24.6,29.76,SW,227,2.0,17.0,60,0.10,,,0.11,218.0,meteohub,2013-03-20 18:42:00,
2013-03-20 14:47:00,37.0,24.1,29.76,SW,234,9.0,14.0,59,0.11,,,0.11,211.0,meteohub,2013-03-20 18:47:00,
2013-03-20 14:52:00,36.3,24.1,29.77,WSW,256,11.0,14.0,61,0.11,,,0.13,278.0,meteohub,2013-03-20 18:52:00,
2013-03-20 14:58:00,36.1,24.4,29.77,West,280,5.0,14.0,62,0.12,,,0.13,241.0,meteohub,2013-03-20 18:58:00,
2013-03-20 15:03:00,35.8,24.1,29.76,WNW,300,1.0,14.0,62,0.12,,,0.14,301.0,meteohub,2013-03-20 19:03:00,
2013-03-20 15:08:00,36.0,24.6,29.76,WNW,288,5.0,13.0,63,0.14,,,0.14,260.0,meteohub,2013-03-20 19:08:00,
2013-03-20 15:14:00,35.8,23.7,29.76,West,278,3.0,13.0,61,0.14,,,0.14,246.0,meteohub,2013-03-20 19:14:00,
2013-03-20 15:19:00,35.8,24.1,29.76,West,274,2.0,15.0,62,0.11,,,0.15,216.0,meteohub,2013-03-20 19:19:00,
2013-03-20 15:24:00,35.8,23.2,29.76,WSW,251,6.0,15.0,60,0.08,,,0.15,167.0,meteohub,2013-03-20 19:24:00,
2013-03-20 15:30:00,35.8,23.2,29.76,NW,311,3.0,15.0,60,0.08,,,0.15,144.0,meteohub,2013-03-20 19:30:00,
2013-03-20 15:35:00,35.8,23.7,29.76,West,263,4.0,15.0,61,0.06,,,0.16,241.0,meteohub,2013-03-20 19:35:00,
2013-03-20 15:40:00,36.1,23.5,29.76,West,273,4.0,10.0,60,0.06,,,0.16,163.0,meteohub,2013-03-20 19:40:00,
2013-03-20 15:45:00,36.1,22.8,29.76,WSW,246,5.0,10.0,58,0.05,,,0.17,98.0,meteohub,2013-03-20 19:45:00,
2013-03-20 15:51:00,36.0,22.6,29.76,WNW,291,2.0,11.0,58,0.05,,,0.17,135.0,meteohub,2013-03-20 19:51:00,
2013-03-20 15:56:00,36.0,22.3,29.76,WNW,293,1.0,16.0,57,0.04,,,0.17,214.0,meteohub,2013-03-20 19:56:00,
2013-03-20 16:01:00,36.1,22.8,29.76,NW,326,1.0,16.0,58,0.04,,,0.17,165.0,meteohub,2013-03-20 20:01:00,
2013-03-20 16:07:00,36.1,22.8,29.77,WNW,293,5.0,16.0,58,0.03,,,0.17,123.0,meteohub,2013-03-20 20:07:00,
2013-03-20 16:12:00,36.1,23.2,29.77,NW,309,6.0,15.0,59,0.03,,,0.17,172.0,meteohub,2013-03-20 20:12:00,
2013-03-20 16:17:00,36.1,24.1,29.77,SW,225,4.0,15.0,61,0.03,,,0.18,156.0,meteohub,2013-03-20 20:17:00,
2013-03-20 16:22:00,36.0,23.9,29.77,WSW,255,3.0,19.0,61,0.03,,,0.18,193.0,meteohub,2013-03-20 20:22:00,
2013-03-20 16:27:00,36.0,24.6,29.77,West,280,5.0,11.0,63,0.03,,,0.18,135.0,meteohub,2013-03-20 20:27:00,
2013-03-20 16:32:00,36.0,24.3,29.78,WNW,286,2.0,11.0,62,0.03,,,0.19,236.0,meteohub,2013-03-20 20:32:00,
2013-03-20 16:37:00,36.0,24.6,29.78,NW,313,5.0,10.0,63,0.03,,,0.19,561.0,meteohub,2013-03-20 20:37:00,
2013-03-20 16:42:00,36.7,25.3,29.78,NW,322,1.0,10.0,63,0.03,,,0.19,148.0,meteohub,2013-03-20 20:42:00,
2013-03-20 16:47:00,36.9,25.5,29.77,West,266,6.0,10.0,63,0.02,,,0.19,371.0,meteohub,2013-03-20 20:47:00,
2013-03-20 16:52:00,36.9,25.0,29.78,WSW,242,0.0,10.0,62,0.02,,,0.19,137.0,meteohub,2013-03-20 20:52:00,
2013-03-20 16:57:00,36.7,25.0,29.78,West,280,0.0,10.0,62,0.03,,,0.19,149.0,meteohub,2013-03-20 20:57:00,
2013-03-20 17:02:00,36.7,24.4,29.78,WNW,293,1.0,10.0,61,0.03,,,0.20,315.0,meteohub,2013-03-20 21:02:00,
2013-03-20 17:07:00,36.9,25.0,29.78,WSW,246,1.0,10.0,62,0.04,,,0.20,186.0,meteohub,2013-03-20 21:07:00,
2013-03-20 17:12:00,37.0,24.8,29.78,WSW,243,5.0,7.0,61,0.04,,,0.20,424.0,meteohub,2013-03-20 21:12:00,
2013-03-20 17:17:00,37.2,24.6,29.77,WNW,288,7.0,7.0,60,0.04,,,0.21,120.0,meteohub,2013-03-20 21:17:00,
2013-03-20 17:22:00,37.0,24.1,29.78,West,276,0.0,9.0,59,0.03,,,0.21,130.0,meteohub,2013-03-20 21:22:00,
2013-03-20 17:27:00,37.0,24.4,29.78,WNW,296,0.0,9.0,60,0.03,,,0.21,72.0,meteohub,2013-03-20 21:27:00,
2013-03-20 17:32:00,36.7,24.1,29.78,North,0,3.0,9.0,60,0.03,,,0.22,83.0,meteohub,2013-03-20 21:32:00,
2013-03-20 17:37:00,36.3,24.1,29.78,WNW,300,0.0,10.0,61,0.03,,,0.22,111.0,meteohub,2013-03-20 21:37:00,
2013-03-20 17:42:00,36.1,24.4,29.78,NW,319,1.0,10.0,62,0.03,,,0.22,98.0,meteohub,2013-03-20 21:42:00,
2013-03-20 17:48:00,36.1,24.4,29.78,WNW,290,1.0,6.0,62,0.03,,,0.22,97.0,meteohub,2013-03-20 21:48:00,
2013-03-20 17:53:00,36.0,24.6,29.78,NNW,331,3.0,6.0,63,0.03,,,0.23,137.0,meteohub,2013-03-20 21:53:00,
2013-03-20 17:58:00,35.8,24.1,29.78,WNW,294,5.0,5.0,62,0.03,,,0.23,62.0,meteohub,2013-03-20 21:58:00,
2013-03-20 18:04:00,35.4,23.7,29.78,West,275,4.0,5.0,62,0.03,,,0.23,40.0,meteohub,2013-03-20 22:04:00,
2013-03-20 18:09:00,35.2,23.9,29.78,West,278,2.0,10.0,63,0.03,,,0.23,60.0,meteohub,2013-03-20 22:09:00,
2013-03-20 18:14:00,35.1,24.1,29.79,NW,304,2.0,10.0,64,0.03,,,0.23,67.0,meteohub,2013-03-20 22:14:00,
2013-03-20 18:20:00,34.9,24.6,29.79,WNW,291,1.0,10.0,66,0.02,,,0.23,93.0,meteohub,2013-03-20 22:20:00,
2013-03-20 18:25:00,34.5,24.6,29.79,WNW,283,0.0,16.0,67,0.02,,,0.23,46.0,meteohub,2013-03-20 22:25:00,
2013-03-20 18:30:00,34.3,24.8,29.79,NNW,348,3.0,16.0,68,0.02,,,0.23,35.0,meteohub,2013-03-20 22:30:00,
2013-03-20 18:35:00,33.8,24.8,29.80,North,5,4.0,9.0,69,0.01,,,0.23,30.0,meteohub,2013-03-20 22:35:00,
2013-03-20 18:41:00,33.4,24.4,29.80,NNE,26,0.0,9.0,69,0.01,,,0.23,23.0,meteohub,2013-03-20 22:41:00,
2013-03-20 18:46:00,33.1,24.4,29.80,West,275,3.0,9.0,70,0.01,,,0.23,18.0,meteohub,2013-03-20 22:46:00,
2013-03-20 18:51:00,32.7,24.4,29.80,West,263,1.0,9.0,71,0.01,,,0.23,14.0,meteohub,2013-03-20 22:51:00,
2013-03-20 18:57:00,32.5,24.3,29.80,WSW,256,2.0,9.0,71,0.00,,,0.23,11.0,meteohub,2013-03-20 22:57:00,
2013-03-20 19:02:00,32.4,24.1,29.80,WSW,242,2.0,9.0,71,0.00,,,0.23,7.0,meteohub,2013-03-20 23:02:00,
2013-03-20 19:07:00,32.4,24.3,29.80,NW,318,2.0,9.0,72,0.00,,,0.23,5.0,meteohub,2013-03-20 23:07:00,
2013-03-20 19:13:00,32.2,24.3,29.80,NW,317,0.0,6.0,72,0.00,,,0.23,0.0,meteohub,2013-03-20 23:13:00,
2013-03-20 19:18:00,31.8,23.9,29.81,West,268,0.0,4.0,72,0.00,,,0.23,0.0,meteohub,2013-03-20 23:18:00,
2013-03-20 19:23:00,31.6,23.7,29.81,WSW,248,0.0,4.0,72,0.00,,,0.23,0.0,meteohub,2013-03-20 23:23:00,
2013-03-20 19:28:00,31.5,23.9,29.81,WNW,301,4.0,4.0,73,0.00,,,0.23,0.0,meteohub,2013-03-20 23:28:00,
2013-03-20 19:34:00,31.5,23.9,29.81,West,267,0.0,3.0,73,0.00,,,0.23,0.0,meteohub,2013-03-20 23:34:00,
2013-03-20 19:39:00,31.5,23.9,29.81,WSW,241,2.0,7.0,73,0.00,,,0.23,0.0,meteohub,2013-03-20 23:39:00,
2013-03-20 19:44:00,31.3,23.7,29.81,WSW,241,2.0,7.0,73,0.00,,,0.23,0.0,meteohub,2013-03-20 23:44:00,
2013-03-20 19:49:00,31.3,23.9,29.81,WSW,241,0.0,5.0,74,0.00,,,0.23,0.0,meteohub,2013-03-20 23:49:00,
2013-03-20 19:55:00,31.1,23.7,29.81,WSW,241,0.0,3.0,74,0.00,,,0.23,0.0,meteohub,2013-03-20 23:55:00,
2013-03-20 20:00:00,30.9,23.5,29.81,WSW,241,0.0,3.0,74,0.00,,,0.23,0.0,meteohub,2013-03-21 00:00:00,
2013-03-20 20:05:00,30.6,23.2,29.80,SW,232,0.0,3.0,74,0.00,,,0.23,0.0,meteohub,2013-03-21 00:05:00,
2013-03-20 20:10:00,30.4,23.4,29.80,WSW,251,1.0,4.0,75,0.00,,,0.23,0.0,meteohub,2013-03-21 00:10:00,
2013-03-20 20:15:00,30.2,23.2,29.81,West,263,0.0,4.0,75,0.00,,,0.23,0.0,meteohub,2013-03-21 00:15:00,
2013-03-20 20:21:00,30.0,23.4,29.80,West,263,0.0,4.0,76,0.00,,,0.23,0.0,meteohub,2013-03-21 00:21:00,
2013-03-20 20:26:00,29.8,23.2,29.80,West,263,1.0,4.0,76,0.00,,,0.23,0.0,meteohub,2013-03-21 00:26:00,
2013-03-20 20:32:00,29.7,23.0,29.80,West,263,0.0,4.0,76,0.00,,,0.23,0.0,meteohub,2013-03-21 00:32:00,
2013-03-20 20:37:00,29.5,22.8,29.80,West,262,2.0,4.0,76,0.00,,,0.23,0.0,meteohub,2013-03-21 00:37:00,
2013-03-20 20:42:00,29.5,22.8,29.80,WNW,285,0.0,4.0,76,0.00,,,0.23,0.0,meteohub,2013-03-21 00:42:00,
2013-03-20 20:47:00,29.3,23.0,29.81,WNW,285,0.0,4.0,77,0.00,,,0.23,0.0,meteohub,2013-03-21 00:47:00,
2013-03-20 20:53:00,29.1,22.5,29.80,WNW,284,2.0,4.0,76,0.00,,,0.23,0.0,meteohub,2013-03-21 00:53:00,
2013-03-20 20:58:00,28.9,22.3,29.80,WNW,284,0.0,3.0,76,0.00,,,0.23,0.0,meteohub,2013-03-21 00:58:00,
2013-03-20 21:03:00,28.9,22.6,29.80,NW,315,0.0,3.0,77,0.00,,,0.23,0.0,meteohub,2013-03-21 01:03:00,
2013-03-20 21:08:00,28.8,22.5,29.80,NW,315,0.0,3.0,77,0.00,,,0.23,0.0,meteohub,2013-03-21 01:08:00,
2013-03-20 21:14:00,28.6,22.3,29.80,West,265,0.0,3.0,77,0.00,,,0.23,0.0,meteohub,2013-03-21 01:14:00,
2013-03-20 21:19:00,28.4,21.7,29.80,West,265,0.0,3.0,76,0.00,,,0.23,0.0,meteohub,2013-03-21 01:19:00,
2013-03-20 21:24:00,28.2,21.9,29.81,WSW,246,0.0,3.0,77,0.00,,,0.23,0.0,meteohub,2013-03-21 01:24:00,
2013-03-20 21:30:00,28.2,21.9,29.81,SW,229,0.0,3.0,77,0.00,,,0.23,0.0,meteohub,2013-03-21 01:30:00,
2013-03-20 21:35:00,28.0,21.4,29.81,SW,229,0.0,3.0,76,0.00,,,0.23,0.0,meteohub,2013-03-21 01:35:00,
2013-03-20 21:40:00,28.0,21.4,29.81,SW,229,0.0,3.0,76,0.00,,,0.23,0.0,meteohub,2013-03-21 01:40:00,
2013-03-20 21:45:00,27.9,21.2,29.81,SW,229,0.0,3.0,76,0.00,,,0.23,0.0,meteohub,2013-03-21 01:45:00,
2013-03-20 21:51:00,27.7,21.0,29.81,SW,229,0.0,2.0,76,0.00,,,0.23,0.0,meteohub,2013-03-21 01:51:00,
2013-03-20 21:56:00,27.3,20.8,29.81,SW,229,0.0,0.0,76,0.00,,,0.23,0.0,meteohub,2013-03-21 01:56:00,
2013-03-20 22:02:00,27.1,20.8,29.81,SW,229,0.0,0.0,77,0.00,,,0.23,0.0,meteohub,2013-03-21 02:02:00,
2013-03-20 22:07:00,27.0,20.7,29.81,SW,229,0.0,0.0,77,0.00,,,0.23,0.0,meteohub,2013-03-21 02:07:00,
2013-03-20 22:12:00,26.8,20.5,29.81,SW,229,0.0,0.0,77,0.00,,,0.23,0.0,meteohub,2013-03-21 02:12:00,
2013-03-20 22:17:00,26.4,20.1,29.81,SW,229,0.0,0.0,77,0.00,,,0.23,0.0,meteohub,2013-03-21 02:17:00,
2013-03-20 22:22:00,26.1,19.8,29.81,SW,229,0.0,0.0,77,0.00,,,0.23,0.0,meteohub,2013-03-21 02:22:00,
2013-03-20 22:27:00,25.9,19.9,29.82,SW,229,0.0,0.0,78,0.00,,,0.23,0.0,meteohub,2013-03-21 02:27:00,
2013-03-20 22:32:00,25.5,19.6,29.81,SW,229,0.0,0.0,78,0.00,,,0.23,0.0,meteohub,2013-03-21 02:32:00,
2013-03-20 22:37:00,25.3,19.4,29.82,SW,229,0.0,0.0,78,0.00,,,0.23,0.0,meteohub,2013-03-21 02:37:00,
2013-03-20 22:42:00,25.2,19.6,29.81,SW,229,0.0,0.0,79,0.00,,,0.23,0.0,meteohub,2013-03-21 02:42:00,
2013-03-20 22:48:00,25.0,19.4,29.81,SW,229,0.0,0.0,79,0.00,,,0.23,0.0,meteohub,2013-03-21 02:48:00,
2013-03-20 22:53:00,24.6,19.4,29.82,SW,229,0.0,0.0,80,0.00,,,0.23,0.0,meteohub,2013-03-21 02:53:00,
2013-03-20 22:58:00,24.4,19.2,29.81,SW,229,0.0,1.0,80,0.00,,,0.23,0.0,meteohub,2013-03-21 02:58:00,
2013-03-20 23:04:00,24.4,19.4,29.82,SW,229,0.0,1.0,81,0.00,,,0.23,0.0,meteohub,2013-03-21 03:04:00,
2013-03-20 23:09:00,24.3,19.2,29.82,SW,229,0.0,0.0,81,0.00,,,0.23,0.0,meteohub,2013-03-21 03:09:00,
2013-03-20 23:14:00,24.1,19.4,29.82,SW,229,0.0,0.0,82,0.00,,,0.23,0.0,meteohub,2013-03-21 03:14:00,
2013-03-20 23:20:00,23.7,19.0,29.82,SW,229,0.0,2.0,82,0.00,,,0.23,0.0,meteohub,2013-03-21 03:20:00,
2013-03-20 23:25:00,23.5,18.9,29.82,SW,229,0.0,2.0,82,0.00,,,0.23,0.0,meteohub,2013-03-21 03:25:00,
2013-03-20 23:31:00,23.4,18.7,29.82,SW,229,0.0,2.0,82,0.00,,,0.23,0.0,meteohub,2013-03-21 03:31:00,
2013-03-20 23:36:00,23.4,18.7,29.82,SW,229,0.0,2.0,82,0.00,,,0.23,0.0,meteohub,2013-03-21 03:36:00,
2013-03-20 23:42:00,23.2,18.9,29.82,SW,229,0.0,2.0,83,0.00,,,0.23,0.0,meteohub,2013-03-21 03:42:00,
2013-03-20 23:47:00,23.2,18.9,29.82,SW,229,0.0,2.0,83,0.00,,,0.23,0.0,meteohub,2013-03-21 03:47:00,
2013-03-20 23:52:00,23.0,18.9,29.82,SW,229,0.0,2.0,84,0.00,,,0.23,0.0,meteohub,2013-03-21 03:52:00,
2013-03-20 23:57:00,22.8,18.7,29.82,SW,229,0.0,0.0,84,0.00,,,0.23,0.0,meteohub,2013-03-21 03:57:00,